[[{"header":{"parameterUnit":"m.s-1","parameterCategory":1,"la1":30.2991,"la2":30.254,"lo1":-89.0895,"lo2":-89.0444,"dy":0.0017,"dx":0.0017,"nx":28,"ny":28,"refTime":"2025-01-14T09:00:00:Z","depth":0,"parameterNumber":2,"parameterNumberName":"U-component_of_WINDS"},"data":[0,0,0,0,0,0,0,0,0,0,0,0,0,0,0,0,0,0,0,0,0,0,0,0,0,0,0,0,0,0,0,0,0,0,0,0,0,0,0,0,0,0,0,0,0,0,0,0,0,0,0,0,0,0,0,0,0,0,-2.6619,-2.6619,0,-2.6606,-2.6606,-2.6606,-2.6542,-2.6541,-2.6539,-2.6538,-2.6526,-2.6527,-2.6528,0,0,0,0,0,0,0,0,0,0,0,0,0,-2.659,-2.6591,-2.6619,-2.6619,-2.6619,-2.6606,-2.6606,-2.6606,-2.6542,-2.654,-2.6539,-2.6537,-2.6525,-2.6527,-2.6528,0,0,0,0,0,0,0,0,0,0,0,0,0,-2.6592,-2.6591,-2.6619,-2.6585,-2.6582,-2.6606,-2.6606,-2.6606,-2.6543,-2.654,-2.6538,-2.6536,-2.6525,-2.6527,-2.6528,-2.6584,0,0,-2.6533,-2.6534,0,0,0,0,0,0,0,0,-2.6592,-2.6594,-2.6591,-2.6588,-2.6584,-2.6573,-2.6591,-2.6599,-2.6543,-2.6558,-2.6538,-2.6535,-2.6544,-2.6543,-2.6546,-2.6583,-2.6583,-2.6533,-2.6534,-2.6535,-2.6536,0,0,0,0,0,0,0,-2.6592,-2.6594,-2.6614,-2.6591,-2.6587,-2.6571,-2.6569,-2.6592,-2.6564,-2.6556,-2.6552,-2.6551,-2.6541,-2.6545,-2.6545,-2.6583,-2.6533,-2.6535,-2.6536,-2.6536,-2.6666,-2.6668,0,0,0,0,0,0,-2.6597,-2.6594,-2.6614,-2.6614,-2.6583,-2.6574,-2.6571,-2.6579,-2.6563,-2.6559,-2.6553,-2.6548,-2.6543,-2.6544,-2.6545,-2.661,-2.6535,-2.6537,-2.6538,-2.6664,-2.6667,-2.6669,0,0,0,0,0,0,-2.6596,-2.6599,-2.6615,-2.6603,-2.6603,-2.6577,-2.6586,-2.658,-2.6583,-2.6561,-2.6555,-2.6562,-2.6541,-2.6542,-2.6575,-2.6608,-2.6537,-2.6539,-2.6661,-2.6665,-2.6668,-2.674,0,0,0,0,0,0,-2.6596,-2.6599,-2.662,-2.6603,-2.6604,-2.6645,-2.6588,-2.6582,-2.6586,-2.658,-2.6567,-2.6563,-2.654,-2.6573,-2.6576,-2.6609,-2.654,-2.6658,-2.6662,-2.6667,-2.6735,-2.6746,-2.6755,0,0,0,0,0,-2.6595,-2.6641,-2.6621,-2.6624,-2.6629,-2.6647,-2.6647,-2.6619,-2.6589,-2.661,-2.6595,-2.6563,-2.6604,-2.6577,-2.658,-2.6614,-2.6655,-2.6661,-2.6666,-2.673,-2.6744,-2.6755,0,0,0,0,0,0,-2.6662,-2.6638,-2.6616,-2.6658,-2.6655,-2.6636,-2.6661,-2.6634,-2.664,-2.6634,-2.6599,-2.6597,-2.6635,-2.6627,-2.6597,-2.6668,-2.6624,-2.6631,-2.6671,-2.6684,-2.6694,-2.6696,-2.6541,0,0,0,0,0,-2.6681,-2.6697,-2.6676,-2.6715,-2.6714,-2.6688,-2.6695,-2.6673,-2.6669,-2.6668,-2.6655,-2.6653,-2.6665,-2.6674,-2.6684,-2.6733,-2.673,-2.6758,-2.6769,-2.6777,-2.6784,-2.681,-2.6823,-2.6687,-2.6687,-2.6687,0,0,-2.6722,-2.6711,-2.6723,-2.6728,-2.6723,-2.6741,-2.6688,-2.6709,-2.6722,-2.6671,-2.6701,-2.6692,-2.6687,-2.6728,-2.6746,-2.6724,-2.682,-2.6784,-2.6791,-2.6793,-2.6817,-2.683,-2.6841,-2.6691,-2.669,-2.669,0,0,-2.6806,-2.6798,-2.6831,-2.6827,-2.682,-2.6803,-2.6811,-2.6796,-2.6789,-2.6818,-2.678,-2.6796,-2.6817,-2.6816,-2.6818,-2.6901,-2.6873,-2.6906,-2.696,-2.6986,-2.6997,-2.7006,-2.7038,-2.7049,-2.6912,-2.6912,-2.6912,0,-2.6857,-2.6882,-2.6851,-2.6874,-2.6878,-2.6832,-2.6865,-2.6863,-2.6861,-2.6865,-2.6839,-2.6866,-2.6859,-2.69,-2.6921,-2.6923,-2.6932,-2.6907,-2.6998,-2.7007,-2.7015,-2.7045,-2.7056,-2.6916,-2.6916,-2.6915,-2.6915,0,-2.6947,-2.6965,-2.6992,-2.699,-2.6997,-2.7025,-2.6998,-2.7009,-2.6987,-2.6972,-2.7004,-2.6994,-2.7002,-2.7009,-2.6988,-2.7048,-2.7034,-2.7004,-2.696,-2.7033,-2.706,-2.7071,-2.6922,-2.692,-2.6919,-2.6918,0,0,-2.7072,-2.7053,-2.7064,-2.7063,-2.7053,-2.7067,-2.7093,-2.71,-2.7111,-2.711,-2.7132,-2.7152,-2.7124,-2.7127,-2.7105,-2.7128,-2.7196,-2.7095,-2.7094,-2.7115,-2.7263,-2.7286,-2.73,-2.7177,-2.7179,-2.718,-2.7264,0,-2.7153,-2.7197,-2.717,-2.7218,-2.7236,-2.7193,-2.7216,-2.7213,-2.72,-2.7213,-2.7199,-2.7214,-2.7175,-2.7177,-2.7197,-2.7184,-2.7226,-2.7177,-2.7198,-2.7199,-2.7202,-2.7314,-2.7338,-2.7418,-2.7274,-2.7276,-2.7277,0,-2.7254,-2.7258,-2.7308,-2.7296,-2.7302,-2.7323,-2.7328,-2.7341,-2.7336,-2.7325,-2.7329,-2.7301,-2.7327,-2.7283,-2.7319,-2.7286,-2.7293,-2.7288,-2.729,-2.7292,-2.7243,-2.732,-2.7442,-2.7454,-2.7293,-2.7292,-2.729,0,-2.7342,-2.736,-2.7393,-2.7393,-2.7379,-2.7395,-2.739,-2.7383,-2.739,-2.7394,-2.7398,-2.7406,-2.741,-2.7417,-2.7393,-2.7363,-2.7433,-2.7386,-2.7425,-2.7426,-2.7443,-2.7442,-2.7569,-2.7445,-2.7445,-2.7445,-2.7445,0,-2.7436,-2.7469,-2.7432,-2.7453,-2.7489,-2.7457,-2.7493,-2.7484,-2.7478,-2.7496,-2.746,-2.7478,-2.7444,-2.7459,-2.744,-2.7473,-2.7475,-2.7468,-2.7463,-2.7472,-2.7473,-2.7477,-2.7471,-2.7448,-2.7447,-2.7447,-2.7446,0,-2.7541,-2.7518,-2.7551,-2.7535,-2.7531,-2.7559,-2.7545,-2.7563,-2.7548,-2.7572,-2.7575,-2.7552,-2.7567,-2.7544,-2.7557,-2.7544,-2.759,-2.7576,-2.7592,-2.7588,-2.7629,-2.7627,-2.7764,-2.7781,-2.7646,-2.7647,-2.7648,0,-2.7603,-2.7627,-2.7613,-2.7623,-2.762,-2.7636,-2.7642,-2.7612,-2.762,-2.7618,-2.7637,-2.7649,-2.7658,-2.7685,-2.7669,-2.7679,-2.7666,-2.7713,-2.7667,-2.7676,-2.7668,-2.7667,-2.767,-2.7723,-2.7725,-2.7726,-2.7727,0,-2.7716,-2.7703,-2.7714,-2.7721,-2.773,-2.7734,-2.7735,-2.7745,-2.7713,-2.7725,-2.774,-2.7747,-2.776,-2.7774,-2.778,-2.7775,-2.7747,-2.7742,-2.7752,-2.7762,-2.7771,-2.7768,-2.7619,-2.7739,-2.7738,-2.7737,-2.7736,-2.7736,-2.7802,-2.7822,-2.7816,-2.7829,-2.7827,-2.7829,-2.7846,-2.7833,-2.7846,-2.7854,-2.7835,-2.7856,-2.7852,-2.7857,-2.7855,-2.7871,-2.785,-2.7864,-2.7868,-2.7872,-2.7879,-2.7767,-2.7872,-2.7872,-2.7871,-2.7871,-2.7871,0,-2.7914,-2.7908,-2.792,-2.7924,-2.7935,-2.7906,-2.7906,-2.7918,-2.7936,-2.7934,-2.7943,-2.7962,-2.7975,-2.796,-2.7971,-2.7986,-2.7974,-2.799,-2.7989,-2.7989,-2.7897,-2.7888,-2.8,-2.8,-2.8,-2.8,-2.8,-2.8,-2.7973,-2.8006,-2.7993,-2.8025,-2.8019,-2.8038,-2.8041,-2.8044,-2.8042,-2.8064,-2.8075,-2.8065,-2.8059,-2.8068,-2.8079,-2.8075,-2.8081,-2.8102,-2.8094,-2.8008,-2.7995,-2.7983,-2.7975,-2.8104,-2.8104,-2.8184,-2.8185,-2.8186]},{"header":{"parameterUnit":"m.s-1","parameterCategory":1,"la1":30.2991,"la2":30.254,"lo1":-89.0895,"lo2":-89.0444,"dy":0.0017,"dx":0.0017,"nx":28,"ny":28,"refTime":"2025-01-14T09:00:00:Z","depth":0,"parameterNumber":3,"parameterNumberName":"V-component_of_WINDS"},"data":[0,0,0,0,0,0,0,0,0,0,0,0,0,0,0,0,0,0,0,0,0,0,0,0,0,0,0,0,0,0,0,0,0,0,0,0,0,0,0,0,0,0,0,0,0,0,0,0,0,0,0,0,0,0,0,0,0,0,-2.9018,-2.9018,0,-2.9036,-2.9036,-2.9037,-2.9004,-2.9003,-2.9002,-2.9,-2.9017,-2.9019,-2.902,0,0,0,0,0,0,0,0,0,0,0,0,0,-2.8952,-2.8953,-2.9018,-2.9018,-2.9018,-2.9036,-2.9036,-2.9037,-2.9004,-2.9003,-2.9001,-2.9,-2.9017,-2.9018,-2.902,0,0,0,0,0,0,0,0,0,0,0,0,0,-2.8976,-2.8954,-2.9018,-2.9004,-2.9003,-2.9036,-2.9036,-2.9037,-2.9004,-2.9003,-2.9001,-2.8999,-2.9016,-2.9018,-2.902,-2.9067,0,0,-2.9027,-2.9028,0,0,0,0,0,0,0,0,-2.8975,-2.8979,-2.9006,-2.9005,-2.9004,-2.9016,-2.9019,-2.9047,-2.9005,-2.9004,-2.9,-2.8999,-2.9018,-2.902,-2.9027,-2.9068,-2.9068,-2.9027,-2.9029,-2.903,-2.903,0,0,0,0,0,0,0,-2.8973,-2.8978,-2.9025,-2.9006,-2.9005,-2.8996,-2.8998,-2.9024,-2.902,-2.9004,-2.9001,-2.9004,-2.9017,-2.9025,-2.9027,-2.9069,-2.9027,-2.9029,-2.903,-2.9031,-2.9149,-2.9151,0,0,0,0,0,0,-2.8974,-2.8977,-2.9024,-2.9025,-2.8985,-2.8999,-2.9001,-2.9014,-2.9019,-2.9019,-2.9005,-2.9002,-2.9022,-2.9024,-2.9027,-2.9083,-2.9029,-2.9032,-2.9033,-2.9147,-2.9149,-2.9151,0,0,0,0,0,0,-2.8972,-2.8978,-2.9024,-2.9,-2.9006,-2.9002,-2.9017,-2.9015,-2.9023,-2.9021,-2.902,-2.9014,-2.9021,-2.9024,-2.9058,-2.9083,-2.9033,-2.9035,-2.9145,-2.9148,-2.915,-2.9195,0,0,0,0,0,0,-2.8971,-2.8978,-2.8996,-2.9001,-2.9007,-2.9054,-2.9018,-2.9017,-2.9027,-2.9023,-2.9029,-2.9028,-2.902,-2.9055,-2.906,-2.9085,-2.9036,-2.9143,-2.9146,-2.9149,-2.9191,-2.9198,-2.9205,0,0,0,0,0,-2.8968,-2.9007,-2.8997,-2.9003,-2.903,-2.9056,-2.9059,-2.9049,-2.9029,-2.9047,-2.9046,-2.9028,-2.9079,-2.9058,-2.9064,-2.9091,-2.9141,-2.9145,-2.9149,-2.9188,-2.9197,-2.9205,0,0,0,0,0,0,-2.9004,-2.9008,-2.8997,-2.9038,-2.9047,-2.905,-2.9073,-2.9059,-2.9073,-2.9069,-2.9055,-2.9057,-2.9093,-2.9095,-2.9071,-2.9136,-2.9107,-2.9112,-2.9134,-2.9143,-2.915,-2.9149,-2.9038,0,0,0,0,0,-2.9017,-2.9039,-2.904,-2.9077,-2.9082,-2.9077,-2.9088,-2.9079,-2.9088,-2.9091,-2.9092,-2.91,-2.9118,-2.913,-2.9146,-2.919,-2.9191,-2.9211,-2.9218,-2.9224,-2.923,-2.9254,-2.9263,-2.9165,-2.9165,-2.9165,0,0,-2.9044,-2.9048,-2.9063,-2.9084,-2.909,-2.9113,-2.908,-2.9105,-2.9121,-2.9094,-2.9127,-2.9128,-2.9135,-2.9175,-2.9192,-2.9177,-2.9257,-2.9229,-2.9234,-2.9236,-2.9259,-2.9268,-2.9276,-2.9167,-2.9167,-2.9166,0,0,-2.9104,-2.911,-2.9142,-2.9148,-2.9158,-2.9154,-2.9162,-2.9167,-2.9167,-2.9199,-2.918,-2.9198,-2.9229,-2.9236,-2.9244,-2.9307,-2.9292,-2.9313,-2.935,-2.9374,-2.9382,-2.9388,-2.9412,-2.9421,-2.9317,-2.9318,-2.9318,0,-2.9136,-2.917,-2.9159,-2.9186,-2.9196,-2.9173,-2.9205,-2.9212,-2.9226,-2.9234,-2.9217,-2.9256,-2.9259,-2.93,-2.9316,-2.9322,-2.9331,-2.9313,-2.9382,-2.9388,-2.9394,-2.9417,-2.9426,-2.932,-2.932,-2.932,-2.9319,0,-2.9209,-2.9233,-2.9257,-2.9273,-2.9286,-2.9315,-2.9308,-2.9322,-2.9312,-2.931,-2.9343,-2.9346,-2.9364,-2.9372,-2.9362,-2.9412,-2.9403,-2.9384,-2.9354,-2.9407,-2.9428,-2.9436,-2.9324,-2.9323,-2.9322,-2.9322,0,0,-2.9294,-2.9304,-2.9313,-2.932,-2.9329,-2.9347,-2.9375,-2.9392,-2.9405,-2.9415,-2.9438,-2.9465,-2.9448,-2.9457,-2.9447,-2.9468,-2.9519,-2.9447,-2.9447,-2.9461,-2.9575,-2.959,-2.9601,-2.9508,-2.951,-2.9511,-2.9575,0,-2.9355,-2.9405,-2.9396,-2.9444,-2.9466,-2.9445,-2.9469,-2.9477,-2.9475,-2.9493,-2.9491,-2.9511,-2.9486,-2.9491,-2.9511,-2.9509,-2.9542,-2.9504,-2.953,-2.9531,-2.9531,-2.9611,-2.9627,-2.9687,-2.9583,-2.9584,-2.9585,0,-2.9434,-2.9449,-2.9499,-2.9506,-2.9514,-2.9537,-2.9553,-2.957,-2.9578,-2.9575,-2.9585,-2.9572,-2.9599,-2.9569,-2.9606,-2.958,-2.959,-2.9591,-2.9593,-2.9596,-2.9563,-2.9618,-2.9706,-2.9716,-2.9598,-2.9597,-2.9596,0,-2.9492,-2.9524,-2.9559,-2.9566,-2.9574,-2.959,-2.9594,-2.96,-2.9612,-2.9625,-2.9632,-2.9648,-2.9657,-2.9669,-2.9661,-2.9639,-2.97,-2.9668,-2.9699,-2.9699,-2.9714,-2.9713,-2.9806,-2.9718,-2.9718,-2.9717,-2.9717,0,-2.9563,-2.9595,-2.9586,-2.9607,-2.9643,-2.9631,-2.9666,-2.9667,-2.9673,-2.9694,-2.9676,-2.9696,-2.9682,-2.9701,-2.9694,-2.9727,-2.973,-2.9729,-2.9727,-2.9732,-2.9732,-2.9739,-2.9735,-2.972,-2.9719,-2.9719,-2.9718,0,-2.9635,-2.963,-2.9667,-2.9671,-2.9673,-2.9699,-2.9703,-2.9722,-2.9719,-2.9746,-2.9752,-2.9747,-2.9768,-2.976,-2.9782,-2.9777,-2.982,-2.9811,-2.9818,-2.9816,-2.9848,-2.9846,-2.995,-2.9963,-2.9865,-2.9866,-2.9866,0,-2.9681,-2.9705,-2.9713,-2.9726,-2.9732,-2.9753,-2.9765,-2.9754,-2.9767,-2.9779,-2.9797,-2.9817,-2.9832,-2.9866,-2.9865,-2.9881,-2.9874,-2.9909,-2.9877,-2.9881,-2.9876,-2.9876,-2.9879,-2.9917,-2.9918,-2.9919,-2.9919,0,-2.9763,-2.976,-2.9778,-2.9796,-2.9812,-2.9825,-2.9836,-2.9848,-2.9837,-2.9853,-2.9875,-2.9887,-2.991,-2.993,-2.9945,-2.9947,-2.9932,-2.993,-2.9938,-2.9944,-2.9947,-2.9947,-2.9837,-2.9928,-2.9927,-2.9926,-2.9926,-2.9925,-2.9825,-2.9846,-2.9855,-2.9876,-2.9884,-2.9895,-2.9915,-2.9914,-2.9933,-2.9952,-2.9943,-2.9969,-2.9976,-2.9995,-3.0,-3.002,-3.0006,-3.0018,-3.0021,-3.0024,-3.0029,-2.9943,-3.0022,-3.0022,-3.0022,-3.0022,-3.0021,0,-2.9908,-2.9913,-2.9932,-2.995,-2.9967,-2.9951,-2.9963,-2.9978,-3.0001,-3.0009,-3.0025,-3.005,-3.0069,-3.0069,-3.0087,-3.0102,-3.0096,-3.0108,-3.0107,-3.0108,-3.004,-3.0032,-3.0113,-3.0113,-3.0113,-3.0113,-3.0113,-3.0113,-2.9953,-2.9989,-2.9986,-3.0025,-3.0029,-3.0055,-3.0064,-3.0074,-3.0081,-3.0111,-3.0127,-3.0127,-3.0132,-3.015,-3.0166,-3.0166,-3.0174,-3.0188,-3.0185,-3.0122,-3.0113,-3.0104,-3.0097,-3.019,-3.019,-3.0252,-3.0253,-3.0253]}]]